Temp
35 34 33 34 35 35 35 35 35 36 36 36 37 37 37 37 38 38 37 38 37 38 40 40 42 44 44 45 46 47 48 48 46 49 47 44 47 48 48 49 49 50 51
34 34 34 34 34 33 33 34 35 35 36 38 37 36 37 38 38 38 36 37 36 36 37 39 40 44 43 43 44 45 46 48 47 46 46 45 46 47 47 46 46 48 49
34 33 33 33 32 32 33 34 34 35 35 35 36 35 35 35 36 37 37 36 36 37 37 37 39 41 41 42 43 43 44 47 48 47 45 43 43 44 42 43 43 45 47
33 32 31 31 32 32 33 33 33 34 34 34 35 35 35 35 35 36 36 36 36 37 37 38 39 40 41 42 42 42 44 44 45 46 44 41 41 42 42 40 40 38 40
31 30 30 31 32 32 32 31 32 31 32 33 33 34 34 35 36 35 36 35 35 36 38 40 41 41 43 44 43 42 42 41 42 43 43 40 38 39 40 40 37 36 37
30 29 30 30 31 30 30 30 29 29 30 31 31 32 32 35 37 38 37 35 35 35 35 38 40 41 41 44 45 45 44 41 40 40 42 42 39 40 40 40 36 35 35
29 29 30 30 30 29 29 29 28 27 28 28 29 30 31 32 36 38 38 36 34 34 35 37 38 41 41 41 43 44 44 45 45 43 41 43 42 41 42 38 38 37 35
28 29 29 29 28 28 28 27 27 27 27 27 28 29 30 32 36 37 38 36 35 35 36 36 37 38 39 40 40 40 42 43 45 45 45 45 47 45 44 43 41 33 34
28 28 29 28 27 27 26 26 26 26 26 26 29 29 29 30 35 37 37 34 34 35 36 37 37 38 40 42 39 38 39 40 45 46 46 47 48 47 45 38 35 36 30
27 28 28 28 27 25 25 25 26 26 27 28 29 30 32 30 34 37 37 34 34 34 36 36 39 39 40 42 39 38 36 38 40 41 43 45 47 46 44 43 39 37 30
28 27 27 27 26 26 26 26 26 25 26 26 27 29 29 31 33 37 39 36 35 35 35 36 37 40 41 42 43 40 39 41 40 39 39 41 43 42 41 40 41 41 36
26 26 25 25 26 27 25 25 26 25 24 24 25 26 29 31 35 37 37 38 39 36 36 37 38 40 41 42 42 43 44 43 38 37 35 35 36 35 34 35 34 34 34
24 23 24 25 26 26 25 24 23 25 24 23 25 25 27 31 32 37 37 38 38 37 37 39 40 41 41 41 42 43 43 40 37 35 34 33 33 32 32 31 31 31 31
21 22 23 23 25 25 26 26 24 23 23 24 25 25 27 30 31 34 34 35 37 37 37 37 38 39 41 40 40 40 40 39 37 36 33 30 31 31 30 32 30 30 28
21 22 22 23 23 23 24 24 24 26 27 26 27 27 27 27 31 35 35 35 35 36 36 35 33 34 35 35 37 38 38 38 36 32 30 29 30 30 29 31 30 29 27
20 22 21 23 23 23 22 22 30 30 31 31 31 30 30 33 35 37 38 38 38 38 32 30 29 29 30 31 33 35 36 35 31 31 31 30 29 28 27 27 28 27 25
20 21 23 24 22 22 22 21 20 25 29 30 30 31 32 34 36 36 36 36 36 34 29 28 27 28 28 29 30 31 31 31 32 31 30 29 28 28 26 25 25 25 23
22 26 23 23 22 21 21 21 20 20 20 22 29 31 32 34 36 36 36 35 30 30 28 27 27 27 28 28 28 28 29 30 30 30 29 29 28 27 25 24 24 23 22
23 22 23 22 22 23 21 21 21 21 21 21 24 29 32 34 36 34 34 29 28 27 27 27 27 27 28 28 29 29 29 29 29 29 28 27 27 26 24 23 24 26 25
23 25 25 22 20 20 20 20 21 21 22 23 24 25 28 32 29 29 29 29 28 27 27 27 27 28 28 28 29 29 29 28 27 27 27 26 25 25 24 25 25 22 21
21 21 24 20 19 20 20 20 23 23 23 23 25 28 35 29 28 27 27 27 27 27 27 27 27 27 27 28 28 27 27 27 26 26 26 25 26 25 25 22 21 19 19
20 19 19 18 19 19 22 23 23 23 24 25 27 30 32 28 27 27 27 27 27 28 28 27 27 27 27 27 27 27 26 25 26 26 26 26 25 23 23 21 21 21 21
18 17 17 18 19 23 21 22 23 23 25 29 30 29 28 27 27 26 26 27 27 27 27 27 26 26 27 27 27 27 26 26 27 27 25 24 24 23 23 22 21 20 20
17 16 16 16 18 20 19 22 23 25 25 29 28 27 26 26 26 26 26 26 26 26 27 26 26 25 25 26 26 26 26 27 27 26 26 24 24 24 22 22 21 21 21
15 15 15 15 17 18 19 21 23 24 25 28 27 26 26 26 25 25 25 25 25 25 25 25 25 25 25 25 26 26 28 29 27 27 26 24 23 23 22 22 22 22 22
13 14 14 16 17 18 18 21 23 24 26 27 26 26 26 25 25 25 25 25 24 24 24 25 25 25 26 27 27 30 31 30 28 29 25 24 23 22 22 21 20 19 17
MSLP
1024.59 1024.32 1024.09 1023.65 1023.14 1022.73 1022.24 1021.73 1021.22 1020.55 1019.87 1019.24 1018.77 1018.22 1017.73 1017.32 1016.99 1016.57 1016.21 1015.85 1015.41 1014.97 1014.67 1014.33 1013.90 1013.63 1013.24 1013.08 1012.82 1012.33 1011.77 1011.59 1010.93 1010.58 1011.02 1011.09 1011.13 1011.60 1011.63 1011.59 1011.71 1011.78 1011.93
1024.66 1024.42 1023.97 1023.40 1022.81 1022.39 1021.89 1021.30 1020.77 1020.13 1019.43 1018.68 1018.27 1017.87 1017.43 1016.98 1016.53 1016.04 1015.57 1015.35 1014.96 1014.59 1014.23 1013.95 1013.62 1013.20 1012.83 1012.65 1012.45 1012.09 1011.81 1011.26 1011.14 1011.01 1010.95 1011.32 1011.62 1011.75 1011.64 1011.84 1012.03 1011.99 1011.82
1024.51 1024.15 1023.75 1023.11 1022.52 1021.95 1021.46 1020.81 1020.24 1019.60 1018.96 1018.37 1017.90 1017.37 1016.95 1016.59 1016.12 1015.63 1015.02 1014.59 1014.31 1014.04 1013.76 1013.48 1013.18 1012.85 1012.47 1012.21 1012.19 1011.99 1011.82 1011.32 1011.00 1010.85 1011.06 1011.38 1011.72 1011.61 1012.15 1012.21 1012.37 1012.32 1011.94
1024.19 1023.77 1023.28 1022.79 1022.22 1021.58 1021.00 1020.37 1019.78 1019.23 1018.59 1017.97 1017.37 1016.89 1016.42 1015.99 1015.53 1015.01 1014.52 1014.05 1013.60 1013.32 1013.09 1012.86 1012.59 1012.36 1012.10 1011.78 1011.88 1011.83 1011.61 1011.20 1010.87 1010.54 1010.59 1010.98 1011.33 1011.53 1011.90 1012.46 1013.06 1013.28 1012.99
1024.03 1023.48 1022.93 1022.33 1021.83 1021.15 1020.62 1020.08 1019.43 1018.86 1018.25 1017.58 1016.85 1016.26 1015.73 1015.23 1014.70 1014.24 1013.84 1013.50 1013.10 1012.67 1012.36 1012.05 1011.83 1011.66 1011.41 1011.09 1011.16 1011.22 1011.18 1010.96 1010.76 1010.21 1009.98 1010.34 1010.84 1011.48 1011.56 1012.41 1013.23 1013.66 1013.72
1023.94 1023.39 1022.63 1021.99 1021.38 1020.71 1020.23 1019.67 1019.05 1018.38 1017.75 1017.07 1016.31 1015.68 1015.00 1014.37 1013.75 1013.33 1012.98 1012.70 1012.40 1012.07 1011.67 1011.35 1011.05 1010.96 1010.73 1010.44 1010.41 1010.47 1010.60 1010.59 1010.34 1010.35 1010.01 1009.56 1009.83 1010.55 1011.12 1012.09 1013.09 1013.72 1014.45
1023.52 1022.99 1022.26 1021.62 1020.99 1020.38 1019.77 1019.13 1018.50 1017.86 1017.14 1016.45 1015.71 1015.04 1014.29 1013.52 1012.88 1012.32 1011.93 1011.63 1011.42 1011.09 1010.79 1010.50 1010.25 1010.06 1009.97 1009.91 1009.78 1009.72 1009.63 1009.68 1009.70 1009.86 1009.63 1009.39 1009.38 1009.47 1010.03 1011.71 1012.36 1013.08 1013.77
1023.35 1022.66 1021.93 1021.29 1020.64 1019.93 1019.31 1018.61 1017.92 1017.32 1016.55 1015.75 1014.91 1014.21 1013.51 1012.55 1011.91 1011.31 1010.86 1010.62 1010.39 1010.15 1009.88 1009.65 1009.43 1009.21 1009.20 1009.21 1009.10 1008.92 1008.81 1008.79 1008.81 1008.90 1008.93 1008.90 1008.96 1009.10 1009.31 1009.91 1011.24 1013.13 1014.15
1023.18 1022.45 1021.71 1021.10 1020.29 1019.54 1018.82 1018.16 1017.43 1016.61 1015.78 1015.01 1014.19 1013.25 1012.56 1011.62 1011.03 1010.31 1009.83 1009.53 1009.09 1008.80 1008.69 1008.49 1008.35 1008.14 1008.08 1008.16 1008.30 1008.18 1008.08 1008.05 1008.20 1008.29 1008.27 1008.30 1008.37 1008.62 1009.16 1010.07 1011.54 1012.52 1014.14
1023.08 1022.21 1021.40 1020.78 1019.98 1019.25 1018.49 1017.68 1016.81 1016.04 1015.01 1014.17 1013.16 1012.44 1011.61 1010.66 1010.02 1009.35 1008.78 1008.38 1007.79 1007.54 1007.45 1007.35 1007.12 1006.88 1006.93 1007.01 1007.09 1007.19 1007.20 1007.25 1007.51 1007.62 1007.64 1007.56 1007.63 1007.96 1008.30 1008.69 1009.99 1011.23 1012.91
1022.85 1022.01 1020.94 1020.26 1019.58 1018.80 1017.82 1017.03 1016.07 1015.17 1014.19 1013.33 1012.41 1011.46 1010.65 1009.89 1008.92 1008.18 1007.59 1007.20 1006.74 1006.32 1006.05 1005.89 1005.85 1005.77 1005.63 1005.64 1005.81 1006.07 1006.17 1006.47 1006.70 1006.98 1007.06 1006.90 1006.63 1007.26 1007.96 1008.58 1009.14 1009.80 1010.94
1022.44 1021.64 1020.53 1019.68 1018.98 1018.07 1017.17 1016.14 1015.25 1014.40 1013.39 1012.38 1011.50 1010.46 1009.66 1008.83 1008.09 1007.27 1006.67 1006.17 1005.61 1005.07 1004.55 1004.48 1004.55 1004.60 1004.51 1004.55 1004.67 1004.78 1005.03 1005.42 1005.96 1006.39 1006.66 1006.69 1006.70 1007.28 1008.14 1008.68 1009.26 1009.98 1010.47
1022.06 1021.20 1020.08 1019.11 1018.29 1017.42 1016.41 1015.42 1014.45 1013.63 1012.69 1011.66 1010.81 1009.75 1008.65 1007.81 1006.93 1006.15 1005.57 1004.95 1004.45 1003.82 1003.54 1003.38 1003.32 1003.30 1003.32 1003.46 1003.69 1003.88 1004.17 1004.60 1004.98 1005.75 1006.15 1006.71 1006.91 1007.53 1008.15 1008.98 1009.88 1010.67 1011.42
1021.73 1020.67 1019.61 1018.67 1017.47 1016.56 1015.73 1014.88 1013.90 1012.92 1011.90 1010.92 1009.87 1008.77 1007.71 1006.82 1005.93 1005.04 1004.38 1003.79 1003.08 1002.68 1002.57 1002.39 1002.29 1002.28 1002.24 1002.28 1002.59 1002.80 1003.18 1003.65 1004.04 1004.91 1005.83 1006.87 1007.42 1007.97 1008.46 1008.98 1009.86 1010.98 1011.98
1021.29 1020.25 1019.21 1018.20 1016.98 1015.72 1015.00 1014.20 1013.07 1012.03 1011.16 1009.88 1008.90 1008.11 1007.06 1005.86 1004.75 1004.01 1003.23 1002.37 1001.79 1001.48 1001.36 1001.35 1001.32 1001.20 1000.98 1001.13 1001.33 1001.72 1002.20 1002.77 1003.38 1004.52 1005.74 1006.66 1007.47 1008.12 1008.90 1009.57 1010.12 1010.93 1011.83
1020.93 1019.69 1018.83 1017.47 1016.24 1015.24 1014.08 1012.71 1012.06 1011.16 1010.02 1009.04 1008.15 1007.30 1006.15 1005.11 1003.93 1002.71 1001.67 1000.99 1000.81 1000.65 1000.68 1000.79 1000.82 1000.65 1000.49 1000.46 1000.42 1000.49 1001.22 1002.05 1003.22 1004.33 1005.40 1006.31 1007.27 1008.16 1009.07 1010.09 1010.56 1011.19 1012.13
1020.69 1019.36 1018.11 1016.95 1015.78 1014.75 1013.77 1012.78 1011.04 1009.55 1009.40 1008.28 1007.31 1006.28 1005.20 1004.11 1003.00 1002.35 1001.76 1001.25 1000.90 1000.75 1000.71 1000.67 1000.71 1000.69 1000.66 1000.67 1000.69 1000.70 1001.24 1002.14 1003.08 1004.17 1005.13 1006.19 1007.21 1008.31 1009.21 1010.15 1011.08 1011.89 1013.02
1020.07 1018.93 1017.70 1016.54 1015.65 1014.64 1013.64 1012.63 1011.66 1010.41 1008.96 1007.39 1006.21 1005.62 1004.49 1003.47 1002.47 1001.96 1001.52 1001.10 1001.00 1000.79 1000.72 1000.72 1000.72 1000.80 1000.84 1001.00 1001.24 1001.42 1001.85 1002.45 1003.38 1004.37 1005.33 1006.24 1007.37 1008.24 1009.46 1010.60 1011.47 1012.42 1013.49
1019.45 1018.36 1017.37 1016.36 1015.48 1014.54 1013.57 1012.41 1011.32 1010.17 1009.05 1007.76 1006.22 1004.64 1003.93 1003.10 1002.22 1001.96 1001.56 1001.31 1001.08 1000.97 1001.00 1001.04 1000.99 1001.00 1001.14 1001.31 1001.59 1001.97 1002.38 1003.06 1003.84 1004.71 1005.67 1006.67 1007.81 1008.68 1010.06 1011.17 1012.16 1013.14 1014.01
1019.25 1018.33 1017.20 1016.30 1015.37 1014.32 1013.28 1012.12 1010.89 1009.71 1008.55 1007.41 1006.21 1005.03 1003.84 1002.85 1002.47 1002.16 1001.89 1001.59 1001.38 1001.34 1001.32 1001.32 1001.40 1001.44 1001.56 1001.77 1002.11 1002.56 1003.14 1003.84 1004.63 1005.44 1006.36 1007.38 1008.49 1009.46 1010.57 1011.67 1012.60 1013.62 1014.80
1019.34 1018.42 1017.25 1016.44 1015.42 1014.32 1013.18 1011.90 1010.54 1009.39 1008.25 1007.05 1005.92 1004.82 1003.79 1003.34 1003.01 1002.69 1002.42 1002.15 1001.97 1001.87 1001.75 1001.81 1001.96 1002.08 1002.19 1002.41 1002.79 1003.30 1003.92 1004.65 1005.43 1006.17 1007.08 1008.15 1009.20 1010.26 1011.29 1012.26 1013.23 1014.26 1015.17
1019.64 1018.69 1017.62 1016.65 1015.50 1014.25 1012.91 1011.74 1010.46 1009.22 1007.97 1006.72 1005.53 1004.75 1004.26 1003.89 1003.60 1003.39 1003.17 1002.93 1002.71 1002.59 1002.51 1002.50 1002.65 1002.89 1003.11 1003.36 1003.68 1004.16 1004.78 1005.43 1006.21 1006.99 1007.95 1008.98 1009.94 1010.91 1011.86 1012.84 1013.88 1014.79 1015.65
1019.93 1018.98 1017.93 1016.82 1015.68 1014.26 1013.01 1011.75 1010.48 1009.31 1007.99 1006.57 1005.77 1005.34 1004.99 1004.70 1004.43 1004.21 1004.03 1003.83 1003.67 1003.55 1003.50 1003.51 1003.62 1003.86 1004.14 1004.43 1004.78 1005.23 1005.65 1006.34 1007.03 1007.71 1008.55 1009.60 1010.56 1011.47 1012.39 1013.32 1014.26 1015.22 1016.13
1020.33 1019.46 1018.42 1017.23 1015.95 1014.60 1013.48 1011.99 1010.72 1009.50 1008.32 1007.04 1006.53 1006.12 1005.76 1005.54 1005.35 1005.22 1005.01 1004.86 1004.72 1004.63 1004.58 1004.63 1004.72 1004.86 1005.17 1005.54 1005.93 1006.38 1006.88 1007.42 1008.00 1008.64 1009.15 1010.01 1011.05 1012.11 1012.98 1013.90 1014.81 1015.76 1016.62
1020.88 1019.93 1018.85 1017.65 1016.34 1015.16 1013.83 1012.42 1011.10 1009.92 1008.76 1007.86 1007.35 1007.05 1006.77 1006.51 1006.30 1006.16 1006.03 1005.91 1005.80 1005.77 1005.86 1005.92 1006.00 1006.16 1006.42 1006.77 1007.20 1007.59 1007.98 1008.34 1008.86 1009.45 1010.09 1010.85 1011.77 1012.73 1013.60 1014.49 1015.37 1016.33 1017.20
1021.49 1020.55 1019.46 1018.11 1016.88 1015.65 1014.37 1012.94 1011.65 1010.51 1009.36 1008.70 1008.30 1007.99 1007.78 1007.60 1007.47 1007.35 1007.27 1007.14 1007.07 1007.12 1007.21 1007.33 1007.47 1007.58 1007.73 1007.99 1008.25 1008.48 1008.84 1009.29 1009.89 1010.42 1011.05 1011.76 1012.57 1013.54 1014.38 1015.24 1016.13 1016.99 1017.95
Wind_Speed
6 6 7 8 8 10 10 11 11 11 11 12 11 11 10 10 10 10 10 9 9 8 8 8 10 9 6 5 6 7 6 5 6 2 1 1 3 2 2 2 3 2 3
6 7 8 9 11 10 10 12 12 12 12 12 12 11 12 12 13 11 11 10 10 10 9 9 10 7 9 7 6 8 7 6 4 4 3 1 1 2 3 3 3 2 2
8 9 10 11 11 11 12 12 12 12 13 12 12 12 12 12 13 13 13 12 11 10 10 10 11 10 9 6 7 6 7 6 5 5 3 2 1 2 3 3 3 4 5
9 10 11 12 12 12 12 12 12 13 14 14 13 13 13 13 13 13 13 13 12 11 11 11 11 11 11 9 7 9 8 7 7 6 3 3 2 1 3 3 3 3 4
10 11 12 12 12 12 11 13 13 13 13 14 14 13 13 12 10 12 12 12 12 12 12 11 12 12 16 14 7 8 8 6 6 4 3 3 3 3 4 3 3 1 4
11 12 12 12 13 12 14 14 14 13 13 14 14 13 14 11 20 22 18 12 12 12 11 11 11 15 16 20 20 20 15 9 9 6 4 4 5 4 4 6 5 3 3
12 13 13 12 13 15 15 15 15 14 13 14 14 14 14 15 24 23 22 12 11 11 13 12 11 9 14 12 16 20 21 22 21 11 8 7 5 8 9 7 6 3 3
12 13 13 14 15 15 15 16 15 13 14 14 14 14 14 14 24 24 24 13 11 13 12 12 13 12 12 13 12 11 10 11 11 8 11 9 8 7 12 10 11 7 6
13 14 14 15 16 16 16 16 16 15 15 14 14 16 15 15 24 25 21 12 11 13 12 13 13 14 18 22 14 13 12 11 10 15 15 13 18 16 13 10 8 10 3
14 15 15 15 15 16 17 16 13 14 16 13 15 16 20 17 23 26 21 9 10 9 10 12 22 19 23 23 15 13 12 11 8 8 9 12 17 17 25 15 12 12 5
15 15 15 15 15 15 15 15 15 15 14 15 15 16 15 16 16 24 23 12 9 10 9 9 9 22 24 25 24 13 12 10 11 8 8 7 7 10 9 6 11 11 8
14 16 16 16 14 13 16 15 15 15 14 13 13 13 10 12 19 20 23 25 22 13 10 8 10 21 22 23 19 20 19 16 6 6 5 3 7 7 4 6 8 7 5
15 16 16 17 15 14 15 16 12 12 11 11 11 11 12 10 11 23 25 25 25 14 9 12 19 20 22 20 23 21 19 7 7 7 6 3 3 6 10 10 12 13 13
16 17 16 16 18 15 11 11 11 11 11 11 12 11 10 11 11 11 10 11 17 12 12 11 13 17 20 16 15 14 9 7 8 8 7 6 7 6 8 8 10 9 10
15 15 15 13 15 14 13 12 11 12 13 12 12 12 12 12 12 21 21 13 8 10 11 7 7 8 9 9 10 10 9 9 8 8 9 8 8 8 8 7 9 6 8
16 14 13 13 13 13 12 12 19 23 27 27 27 19 12 22 28 27 19 15 13 14 2 3 3 2 3 4 6 9 9 13 10 10 10 10 10 10 10 7 7 9 12
16 16 13 16 12 11 13 12 14 16 23 24 24 25 25 23 20 12 12 10 7 1 2 2 2 2 2 3 3 6 9 9 12 11 11 11 11 10 12 9 9 10 10
16 26 14 11 12 11 11 12 11 12 14 14 20 22 23 22 18 14 13 8 3 2 0 1 2 3 4 5 5 7 8 10 10 10 11 11 11 11 11 10 9 11 11
15 12 13 11 11 14 11 11 10 11 11 12 13 17 16 22 13 11 11 3 2 1 1 2 2 3 4 5 7 7 9 9 10 11 10 11 11 11 11 10 11 16 16
12 24 19 11 11 11 11 11 11 11 11 10 10 11 10 8 4 4 4 3 2 2 2 3 3 4 5 6 7 8 10 10 10 10 11 11 10 10 11 12 11 11 9
11 12 23 11 11 11 11 12 11 11 11 10 10 11 14 4 4 5 4 4 3 3 3 4 4 5 6 7 8 9 9 10 10 11 11 10 10 11 10 10 10 10 11
10 11 12 12 12 12 12 11 11 11 11 11 10 6 13 5 5 5 5 5 5 5 4 5 6 6 6 7 8 9 10 11 10 11 11 10 10 11 11 11 11 10 10
11 12 12 12 12 17 13 12 11 11 11 11 6 5 5 5 5 5 6 6 6 6 6 6 7 7 7 8 8 7 9 9 9 10 12 11 10 10 10 11 11 10 9
12 12 13 12 11 12 12 13 11 16 14 9 6 6 6 5 6 7 6 6 6 7 7 7 7 10 9 9 8 8 8 8 8 9 13 12 12 13 10 11 10 12 10
11 12 12 12 12 12 13 12 12 12 11 8 6 6 6 6 6 7 7 7 8 8 9 8 7 10 12 13 12 13 16 20 12 12 9 12 14 14 11 10 11 10 11
11 12 12 11 11 12 12 12 12 11 9 7 6 6 6 6 6 6 7 8 8 9 10 8 10 13 13 11 12 17 22 22 17 20 11 11 12 10 10 12 13 9 10
Wind_Direction
316 312 306 305 308 309 306 304 303 304 305 303 300 298 298 294 298 295 288 281 272 280 282 286 278 267 257 267 280 291 268 248 245 273 92 343 94 122 76 41 2 320 304
311 311 303 308 312 306 304 305 305 303 300 303 303 304 303 302 297 295 297 296 289 286 284 283 284 284 267 261 268 273 287 280 260 259 174 145 125 114 96 74 15 355 337
313 311 311 313 310 306 305 304 303 303 305 302 301 297 298 299 295 293 288 286 284 279 277 276 275 276 268 256 271 282 281 279 265 233 218 135 127 125 74 54 30 14 29
311 313 313 311 308 307 304 305 307 307 304 300 297 295 293 291 288 288 286 285 280 274 269 266 267 265 268 255 253 260 266 267 259 260 182 158 149 139 110 120 88 16 29
315 315 311 309 308 307 309 310 308 305 300 298 295 291 288 284 280 280 279 279 278 280 277 269 269 274 281 258 243 255 265 274 286 252 215 143 146 152 159 145 93 94 32
317 312 311 312 309 312 312 310 307 302 299 296 295 291 289 283 284 288 286 276 271 267 267 267 263 264 271 269 263 255 255 258 262 268 276 212 168 157 131 154 134 134 114
314 311 312 312 314 314 311 308 307 305 301 297 292 289 285 283 287 289 284 276 267 256 253 253 253 252 259 258 257 257 257 252 247 251 252 263 187 184 148 148 161 142 147
311 311 315 317 314 312 309 308 308 305 302 297 292 289 285 283 288 290 288 282 267 265 260 253 248 249 244 252 257 253 253 249 248 244 240 239 246 183 173 170 158 111 73
316 315 316 314 311 310 309 308 306 303 301 297 292 294 288 285 288 288 286 275 264 255 249 250 247 247 246 246 247 248 251 247 250 257 261 257 229 187 157 126 147 144 115
317 315 313 310 308 308 305 304 301 297 295 295 293 295 288 288 288 289 288 274 264 256 250 248 252 248 245 247 240 238 239 238 230 241 248 253 236 185 166 170 165 168 130
316 311 311 310 308 303 303 300 298 297 294 293 290 293 286 280 281 286 289 282 271 261 249 239 235 245 251 246 239 234 236 228 220 225 241 245 185 172 171 160 171 167 158
314 312 311 310 308 306 303 300 300 298 293 292 294 293 290 288 287 289 291 286 285 278 260 242 233 239 246 246 243 242 237 222 196 194 180 184 149 142 119 113 96 86 74
316 312 311 309 308 304 304 303 298 301 297 296 296 296 294 286 280 285 286 286 285 276 266 256 253 245 243 242 244 241 233 228 184 178 171 151 129 126 117 102 91 90 77
313 311 313 310 309 310 298 301 300 297 294 293 291 287 292 295 289 285 277 276 270 264 264 265 256 254 245 236 231 233 223 214 179 173 149 122 124 127 121 131 120 114 99
313 314 310 308 304 305 303 299 296 292 290 298 299 296 296 293 288 292 288 280 262 247 250 244 250 244 229 223 218 215 207 187 166 142 146 139 136 130 121 129 128 124 112
315 313 308 310 309 306 304 304 303 305 307 307 304 298 294 293 297 299 308 297 290 287 236 204 217 198 179 174 199 182 169 154 147 145 144 144 141 136 127 116 114 121 122
311 309 309 312 307 313 316 309 313 317 310 309 309 308 308 304 307 332 344 350 333 279 225 179 158 132 111 102 122 145 141 142 140 141 139 136 132 128 127 120 115 120 115
311 312 311 314 317 313 311 313 306 307 313 314 315 314 312 314 309 313 321 316 300 325 292 165 144 136 126 118 114 116 119 123 126 131 131 131 129 126 122 120 119 127 124
317 315 325 319 315 318 311 305 304 303 302 301 307 313 319 322 323 336 339 319 314 14 60 80 99 113 117 117 117 116 117 120 125 124 120 119 120 121 115 117 121 130 127
319 332 332 325 319 316 313 310 308 306 304 303 303 303 309 315 337 340 342 345 17 48 67 75 78 88 101 110 113 116 116 116 116 115 114 112 111 117 122 128 128 127 122
333 327 331 324 321 318 314 309 312 312 307 304 301 303 330 356 351 356 359 12 28 45 64 73 77 78 85 96 104 108 109 110 110 111 110 112 119 122 115 112 114 114 119
334 330 329 326 321 321 319 322 317 316 314 310 307 318 11 9 6 11 15 25 34 45 57 74 74 73 79 91 101 106 109 109 110 112 112 114 114 114 115 115 118 119 121
337 333 331 329 327 327 329 322 328 324 323 321 353 359 7 16 22 22 26 33 41 48 55 68 78 78 75 77 80 93 106 109 113 119 118 117 117 117 120 119 121 120 121
339 336 332 330 331 337 331 329 329 332 330 339 359 7 14 22 31 33 36 40 47 51 54 62 71 81 80 79 80 81 90 100 104 109 115 117 116 117 114 114 116 122 120
340 337 335 333 335 333 330 330 334 334 330 354 4 15 20 29 35 38 40 46 49 53 53 54 61 69 73 85 92 99 108 107 104 106 105 108 112 115 117 115 120 117 117
341 340 336 334 339 335 338 333 339 339 344 358 10 20 27 34 36 41 45 52 57 56 59 60 67 77 84 86 98 112 114 112 110 107 106 109 111 111 113 114 114 113 113